OBJECT D, 57169

Orbit data source: Space-Track

You're viewing an Uncataloged Satellite

Recently launched and/or uncataloged satellites may have evolving metadata. Metadata may include but not limited to: Owner, Maufacturer, Bus, Motor, and Mission.

OBJECT D, 57169 is a satellite in SSO that was launched on Tue, 27 Jun 2023 UTC via a SOYUZ-2-1B launch vehicle from the Vostochny Cosmodrome (VOSTO). Unknown objects in Earth's orbit typically refer to objects detected orbiting the Earth but have not yet been identified or cataloged. These objects could be anything from previously untracked satellites, spent rocket stages, debris from satellite collisions, or even natural meteoroids temporarily captured by Earth's gravity.

Loading next visibility...
Identifier
57169, 2023-091D
Orbit
SSO
Country
Flag of TBDTBD
Related business
None
Manufacturer
Unknown
Mission
Operational Amateur Communications
Bus & Motor
Unknown
Mass
Unknown
Launch date (UTC)
2023-06-27 (3 years ago)
Launch vehicle
SOYUZ-2-1B
Launch site
Vostochny Cosmodrome (VOSTO)
Object type
Unknown
Shape & HBR
Box, 0.2 m
Radar Cross Section
0.035 m², Medium (>0.1 m² and < 1m²)

Expand to show TLE details & history
Last TLE update: 15 hours ago

TLE from 15 hours ago
0 OBJECT D
1 57169U 23091D   26206.58476698  .00008660  00000-0  35221-3 0  9998
2 57169  97.5093 268.2127 0008646 335.4474  24.6350 15.24745716170016
Epoch: 2026-07-25T14:02Z
TLE epoch observation values (Epoch: 2026-07-25T14:02:03.867Z)
Latitude
-0.00005°
Longitude
114.40165°
Altitude
489.244 km
Speed
7.623 km/s
True Right ascension
17h 52m 51s
True Declination
0° 00' 00"
Sunlit
Object was in full shadow at epoch
Visualization orbit readout
Latitude
Unknown
Longitude
Unknown
Altitude
Unknown
Speed
Unknown
Apparent Right ascension
Unknown
Apparent Declination
Unknown
Sunlit
N/A
Visualization observer readout
Local Sidereal Time
18:04:12
Azimuth
Unknown
Elevation
Unknown
Doppler factor
Unknown
Orbital elements
Apogee altitude
494.45 km
Perigee altitude
482.576 km
Semi-major axis
6,866.65 km
Eccentricity
0.00086
Inclination
97.5093°
RAAN
268.2127°
Arg. of periapsis
335.4474°
True anomaly
24.67634°
Mean anomaly
24.635°
Eccentric anomaly
24.65567°
Mean motion
3.8144 °/min
Orbital period
94.38 mins
BSTAR
0.00035221
Loading maneuver chart data...
Computing Atmospheric mass density...
Loading historical data...
Loading historical data...
Loading historical data...
Loading historical data...
Loading historical data...
Loading historical data...
Loading historical data...

Documentation

Showing up to 5 results
|